Location: Great Snoring
(52.8667°N, 0.8833°E)
Time: 06:49:16
(UTC+00:00)

Cosmos 1821 Rocket - Pass Details

Date: 19 May 2025
Orbit: 943 x 1004 km, 82.9° (Epoch: 18 June)

Event Time Altitude Azimuth Distance (km) Brightness Sun altitude
Rises 22:11:44 0° 347° (NNW) 3,646 8.7 -13.9°
Reaches altitude 10° 22:14:16 10° 345° (NNW) 2,689 7.7 -14.1°
Maximum altitude 22:20:19 64° 266° (W) 1,048 4.2 -14.4°
Enters shadow 22:25:07 16° 188° (S) 2,230 5.4 -14.7°
